N2NET Weather Reports


Display with metric or nautical units.
time (UTC)temp
F
wind
direction
speed
MPH
gust
MPH
rain 1hr
in
rain 24hr
in
rain mn
in
humidity
%
barometer
mb
20200331233136 40 212 0.0 1.0 0.00 0.22 0.12 1 1015.5
20200331231619 40 212 0.0 1.0 0.00 0.22 0.12 1 1015.4
20200331230052 41 208 0.0 4.0 0.00 0.22 0.12 1 1015.5
20200331224547 41 187 2.0 3.0 0.00 0.22 0.12 29 1015.3
20200331223100 41 222 0.0 1.0 0.00 0.22 0.12 45 1015.2
20200331221550 42 159 2.0 4.0 0.00 0.22 0.12 46 1015.3
20200331220039 42 138 1.0 2.0 0.00 0.22 0.12 49 1015.4
20200331214545 42 137 1.0 3.0 0.00 0.22 0.12 50 1015.3
20200331213050 43 138 0.0 2.0 0.00 0.22 0.12 57 1015.1
20200331211526 43 150 0.0 3.0 0.00 0.22 0.12 68 1015.0
20200331210014 44 167 1.0 4.0 0.00 0.23 0.12 71 1015.0
20200331204508 44 80 1.0 4.0 0.00 0.23 0.12 72 1015.1
20200331203217 45 162 0.0 3.0 0.00 0.23 0.12 72 1015.2
20200331201619 46 79 1.0 4.0 0.00 0.23 0.12 72 1015.2
20200331200130 46 115 1.0 4.0 0.00 0.23 0.12 72 1015.4
20200331194611 45 179 1.0 4.0 0.00 0.30 0.12 72 1015.7
20200331193106 45 84 1.0 2.0 0.00 0.30 0.12 70 1016.0
20200331191615 44 80 1.0 2.0 0.00 0.30 0.12 71 1016.3
20200331190131 45 80 0.0 2.0 0.00 0.30 0.12 70 1016.4
20200331184541 45 77 1.0 3.0 0.00 0.32 0.12 70 1016.5
20200331183043 44 228 0.0 3.0 0.00 0.32 0.12 69 1016.7
20200331181518 45 288 0.0 4.0 0.00 0.32 0.12 60 1017.0
20200331180053 44 138 0.0 1.0 0.00 0.32 0.12 69 1017.2
20200331174523 44 162 2.0 4.0 0.00 0.33 0.12 67 1017.1
20200331173013 44 226 1.0 7.0 0.00 0.33 0.12 39 1017.3
20200331171509 41 215 2.0 5.0 0.00 0.33 0.12 15 1017.7
20200331170119 40 264 0.0 4.0 0.00 0.33 0.12 2 1017.9
20200331164720 40 314 1.0 4.0 0.00 0.33 0.12 3 1017.9
20200331163137 38 85 0.0 1.0 0.00 0.33 0.12 1 1017.9
20200331161639 38 5 0.0 0.0 0.00 0.33 0.12 1 1017.9
20200331160052 37 307 1.0 3.0 0.00 0.33 0.12 1 1018.1
20200331154555 37 316 1.0 3.0 0.00 0.33 0.12 1 1018.2
20200331153154 37 280 0.0 3.0 0.00 0.33 0.12 1 1018.4
20200331151541 37 188 1.0 5.0 0.00 0.33 0.12 1 1018.6
20200331150103 36 72 0.0 0.0 0.00 0.33 0.12 1 1018.6
20200331144610 35 82 0.0 0.0 0.00 0.33 0.12 1 1018.8
20200331143035 34 46 0.0 4.0 0.00 0.33 0.12 1 1018.9
20200331141556 34 130 0.0 0.0 0.00 0.33 0.12 1 1019.1
20200331140017 33 81 0.0 0.0 0.00 0.33 0.12 1 1019.2
20200331134517 32 84 0.0 2.0 0.00 0.33 0.12 1 1019.1
20200331133005 32 97 1.0 2.0 0.00 0.33 0.12 1 1019.1
20200331130214 32 82 0.0 0.0 0.01 0.33 0.12 1 1019.1
20200331124606 32 44 0.0 3.0 0.01 0.34 0.12 1 1019.0
20200331123112 32 40 0.0 0.0 0.01 0.34 0.12 1 1018.9
20200331121636 32 37 0.0 0.0 0.00 0.33 0.11 1 1019.1
20200331120137 31 37 0.0 0.0 0.00 0.33 0.11 1 1019.1
20200331114642 31 37 0.0 0.0 0.00 0.33 0.11 1 1019.2
20200331113039 31 37 0.0 0.0 0.00 0.33 0.11 1 1018.9
20200331111600 31 37 0.0 0.0 0.00 0.33 0.11 1 1018.9
20200331110032 31 37 0.0 0.0 0.00 0.33 0.11 1 1018.6
20200331104601 31 37 0.0 0.0 0.00 0.33 0.11 1 1018.4
20200331103054 31 37 0.0 0.0 0.00 0.33 0.11 1 1018.3
20200331101507 31 37 0.0 0.0 0.00 0.33 0.11 1 1018.0
20200331100007 31 37 0.0 0.0 0.01 0.34 0.11 1 1017.7
20200331094734 31 39 0.0 0.0 0.01 0.34 0.11 1 1017.3
20200331093159 31 18 0.0 0.0 0.01 0.34 0.11 1 1017.3
20200331091610 31 32 0.0 4.0 0.01 0.34 0.11 1 1017.3
20200331090230 31 79 0.0 0.0 0.00 0.33 0.10 1 1017.1
20200331084556 31 92 0.0 0.0 0.01 0.33 0.10 1 1017.0
20200331083137 31 124 0.0 0.0 0.01 0.33 0.10 1 1016.9
20200331081550 32 84 0.0 2.0 0.01 0.33 0.10 1 1017.0
20200331080040 32 82 0.0 2.0 0.02 0.33 0.10 1 1016.8
20200331074536 32 95 0.0 0.0 0.01 0.32 0.09 1 1016.8
20200331073104 32 86 0.0 0.0 0.01 0.32 0.09 1 1016.9
20200331071603 33 82 0.0 2.0 0.01 0.32 0.09 1 1016.8
20200331070014 33 108 0.0 1.0 0.01 0.32 0.08 1 1016.8
20200331064506 33 94 0.0 0.0 0.01 0.32 0.08 1 1016.8
20200331063002 34 89 0.0 0.0 0.01 0.32 0.08 1 1016.8
20200331061847 34 73 0.0 0.0 0.02 0.32 0.08 1 1016.7
20200331060125 34 78 0.0 0.0 0.01 0.31 0.07 1 1016.7
20200331054602 34 78 0.0 0.0 0.02 0.31 0.07 1 1016.8
20200331053106 34 78 0.0 0.0 0.04 0.31 0.07 1 1016.8
20200331051552 34 90 0.0 0.0 0.05 0.30 0.06 1 1016.8
20200331050041 35 84 0.0 0.0 0.06 0.30 0.06 1 1016.6
20200331044755 35 76 0.0 0.0 0.06 0.28 0.05 1 1016.7
20200331043112 35 94 0.0 0.0 0.04 0.27 0.03 1 1016.6
20200331041525 35 78 0.0 4.0 0.02 0.25 0.01 1 1016.5
20200331040019 36 82 1.0 3.0 0.02 0.24 0.00 1 1016.3
20200331034611 36 82 1.0 2.0 0.01 0.23 0.23 1 1016.3
20200331033031 37 66 0.0 1.0 0.02 0.23 0.23 1 1016.0
20200331031528 37 70 0.0 2.0 0.02 0.23 0.23 1 1015.9
20200331030001 37 15 0.0 0.0 0.01 0.23 0.22 1 1016.1
20200331024718 37 8 0.0 0.0 0.01 0.23 0.22 1 1016.2
20200331023118 37 9 0.0 0.0 0.01 0.22 0.21 1 1016.5
20200331021632 38 8 0.0 0.0 0.02 0.22 0.21 1 1016.4
20200331020128 38 9 0.0 0.0 0.03 0.22 0.21 1 1016.3
20200331014611 38 9 0.0 0.0 0.03 0.22 0.21 1 1016.3
20200331013120 38 11 0.0 0.0 0.02 0.21 0.20 1 1016.0
20200331011604 38 11 0.0 0.0 0.01 0.20 0.19 1 1016.1
20200331010109 38 9 0.0 0.0 0.01 0.19 0.18 1 1015.9
20200331004527 38 8 0.0 0.0 0.02 0.20 0.18 1 1015.7
20200331003035 38 8 0.0 0.0 0.02 0.20 0.18 1 1015.6
20200331001517 38 9 0.0 0.0 0.04 0.20 0.18 1 1015.5
20200331000017 38 8 0.0 0.0 0.03 0.19 0.17 1 1015.3
20200330234609 38 314 0.0 0.0 0.02 0.20 0.16 1 1015.1